Regional Weather Roundup
Issued by NWS Charleston, WV

Home | Current Version | Previous Version | Graphics & Text | Print | Product List | Glossary On
Versions: 1 2 3 4 5 6 7 8 9 10 11 12 13 14 15 16 17 18 19 20 21 22 23 24 25 26 27 28 29 30 31 32 33 34 35 36 37 38 39 40 41 42 43 44 45 46 47 48 49
000
ASUS41 KRLX 031210
RWRRLX
West Virginia Regional Weather Roundup
National Weather Service Charleston WV
800 AM EDT MON AUG 03 2015

Note: "fair" indicates few or no clouds below 12,000 feet with no
significant weather and/or obstructions to visibility.

WVZ003-031300-
Northern Panhandle of West Virginia

CITY           SKY/WX    TMP DP  RH WIND       PRES   REMARKS
WHEELING       CLOUDY    66  59  78 S7        29.88F
$$

WVZ009-031300-
Northwest West Virginia

CITY           SKY/WX    TMP DP  RH WIND       PRES   REMARKS
PARKERSBURG    PTSUNNY   65  61  87 S6        29.96F
$$

WVZ006-031300-
Western West Virginia

CITY           SKY/WX    TMP DP  RH WIND       PRES   REMARKS
HUNTINGTON     MOSUNNY   66  62  87 N5        29.98R
$$

WVZ015-031300-
West Central West Virginia

CITY           SKY/WX    TMP DP  RH WIND       PRES   REMARKS
CHARLESTON     PTSUNNY   63  61  93 SE3       29.99R FOG
$$

WVZ022-031-031300-
North Central West Virginia

CITY           SKY/WX    TMP DP  RH WIND       PRES   REMARKS
CLARKSBURG     MOSUNNY   65  61  87 SE3       29.95R
MORGANTOWN     PTSUNNY   67  58  72 S6        29.94S
$$

WVZ025-035-042-045-031300-
Southern West Virginia

CITY           SKY/WX    TMP DP  RH WIND       PRES   REMARKS
BECKLEY        SUNNY     66  57  72 N5        30.03R
LOGAN            N/A     64  61  88 CALM      29.97R
BLUEFIELD      SUNNY     69  55  60 W5        30.04R
LEWISBURG      SUNNY     58  56  92 NE3       30.01R
$$

WVZ047-031300-
Northern Mountains of West Virginia

CITY           SKY/WX    TMP DP  RH WIND       PRES   REMARKS
ELKINS         SUNNY     61  57  87 CALM      29.99R
$$

WVZ052-031300-
Eastern Panhandle of West Virginia

CITY           SKY/WX    TMP DP  RH WIND       PRES   REMARKS
MARTINSBURG    MOSUNNY   67  59  75 CALM      29.89R
PETERSBURG     SUNNY    N/A N/A N/A CALM      29.91S
$$


USA.gov is the U.S. government's official web portal to all federal, state and local government web resources and services.